Location: Ariel
(45.9570°N, 122.5700°W)
Time: 05:35:53
(UTC-08:00)

Transit 4A - Pass Details

Date: 04 November 2020
Orbit: 862 x 982 km, 66.8° (Epoch: 03 December)

Event Time Altitude Azimuth Distance (km) Brightness Sun altitude
Rises 18:52:12 0° 320° (NW) 3,690 11.6 -21.3°
Reaches altitude 10° 18:56:47 10° 350° (N) 2,745 10.5 -22.1°
Maximum altitude 18:59:16 12° 13° (NNE) 2,579 10.1 -22.6°
Enters shadow 19:00:32 12° 25° (NNE) 2,621 10.0 -22.8°
